Location: *
(50.2903°S, 172.5375°W)
Time: 02:41:51
(UTC+00:00)

ERS-2 - Pass Details

Date: 17 November 2019
Orbit: 494 x 500 km, 98.5° (Epoch: 14 December)

Event Time Altitude Azimuth Distance (km) Brightness Sun altitude
Rises 13:10:14 0° 158° (SSE) 2,640 7.6 -16.2°
Reaches altitude 10° 13:12:29 10° 149° (SSE) 1,747 6.3 -16.0°
Maximum altitude 13:15:58 36° 81° (E) 834 3.4 -15.8°
Enters shadow 13:18:22 17° 22° (NNE) 1,346 3.9 -15.6°
